Location: Fort Frances
(48.6170°N, 93.4170°W)
Time: 02:36:23
(UTC-05:00)

Daily predictions for brighter satellites

Satellite Brightness Start Highest point End
(mag) Time Altitude Azimuth Time Altitude Azimuth Time Altitude Azimuth
Cosmos 1758 Rocket 4.2 00:03:17 10° N 00:06:45 52° NNE 00:06:45 52° NNE
CZ-4 R/B 4.0 00:04:44 10° N 00:09:27 68° WNW 00:09:30 68° WNW
Cosmos 2297 3.7 00:09:41 10° NNW 00:15:21 67° ENE 00:15:44 65° E
USA 215 3.5 00:13:11 33° E 00:16:15 67° NNE 00:22:45 10° NW
Cosmos 2181 Rocket 4.1 00:09:56 10° NNW 00:16:21 70° W 00:17:25 59° SW
Meteor 1-4 Rocket 4.2 00:18:03 36° N 00:18:03 36° N 00:20:26 10° N
Lacrosse 5 2.7 00:14:25 10° W 00:19:21 48° NNW 00:24:17 10° NE
ATLAS CENTAUR R/B 2.9 00:16:00 10° NNW 00:18:29 29° N 00:18:29 29° N
ALOS 2 3.2 00:25:55 53° NNE 00:25:55 53° NNE 00:29:25 10° N
Cosmos 1709 Rocket 4.3 00:24:56 50° WSW 00:26:15 60° WNW 00:32:26 10° N
Cosmos 1777 Rocket 4.2 00:21:31 10° NNW 00:26:40 64° ENE 00:26:40 64° ENE
Cosmos 2278 Rocket 2.7 00:26:11 10° NW 00:31:25 46° WSW 00:31:25 46° WSW
ATLAS CENTAUR R/B 3.2 00:20:38 10° WNW 00:33:36 71° NNE 00:35:02 51° E
COSMOS 2455 2.7 00:35:53 10° NNW 00:41:57 80° NE 00:42:18 77° E
Meteor 2-5 Rocket 3.7 00:38:32 10° NNW 00:44:27 86° W 00:44:33 85° SW
SL-08 ROCKET BODY 4.3 00:44:44 68° WSW 00:45:07 71° W 00:51:00 10° N
H-2A R/B 4.3 00:47:26 17° W 00:47:26 17° W 00:49:47 10° NW
Cosmos 1726 Rocket 4.4 00:49:13 50° NNW 00:49:13 50° NNW 00:52:39 10° N
Meteor 1-24 Rocket 3.8 00:44:09 10° N 00:49:56 69° ENE 00:50:04 69° E
CZ-4B R/B 4.3 00:52:25 14° NNE 00:52:25 14° NNE 00:53:07 10° NNE
RESURS DK-1 3.9 00:53:08 33° NNE 00:53:08 33° NNE 00:55:32 10° NNE
GEOS 3 Rocket 4.4 00:53:54 41° ENE 00:55:02 48° NE 01:00:07 10° NNW
Cosmos 2154 Rocket 4.1 00:55:39 58° E 00:55:46 58° E 01:01:51 10° NNE
Cosmos 2219 Rocket 3.3 00:56:05 28° W 00:58:12 38° NW 01:03:28 10° NNE
CZ-2C R/B 2.8 00:55:29 10° N 01:00:49 66° WNW 01:00:52 66° WNW
SL-16 R/B 2.3 01:03:29 64° ENE 01:03:29 64° ENE 01:08:30 10° NNE
Cosmos 2327 Rocket 4.4 01:04:15 72° SW 01:04:46 77° W 01:11:06 10° N
Cosmos 2333 Rocket 3.5 01:14:46 27° W 01:16:47 35° NW 01:21:58 10° NNE
Cosmos 1898 Rocket 4.3 01:14:23 10° NNW 01:19:27 43° ENE 01:19:56 41° ENE
Iridium 4 Rocket 3.9 01:25:42 49° NNE 01:25:42 49° NNE 01:29:01 10° N
Cosmos 1943 Rocket 3.6 01:23:54 10° NNW 01:28:51 32° NE 01:31:11 24° E
Mayak -0.1 01:26:06 10° N 01:28:57 41° N 01:28:57 41° N
SL-8 Rocket 4.4 01:29:59 49° ESE 01:30:25 50° E 01:36:24 10° NNE
Cosmos 2058 Rocket 4.5 01:34:07 32° NW 01:34:07 32° NW 01:37:23 10° N
Cosmos 962 Rocket 4.3 01:37:05 82° SSE 01:37:22 86° E 01:43:40 10° N
Cosmos 2237 Rocket 3.5 01:38:56 28° W 01:40:39 33° NW 01:45:44 10° NNE
Cosmos 2369 Rocket 2.5 01:35:19 10° NNW 01:41:00 60° ENE 01:41:42 56° E
NOSS 2-2 (E) 4.3 01:42:03 54° N 01:42:03 54° N 01:46:14 10° NE
CZ-3A R/B 4.1 01:25:40 10° WNW 01:44:00 76° NNE 01:49:46 10° ESE
Cosmos 2298 Rocket 4.4 01:44:35 10° NNW 01:49:51 57° ENE 01:50:13 55° E
CENTAUR R/B 3.6 01:44:41 10° NW 01:51:46 39° WSW 01:51:46 39° WSW
Meteor 2-21 4.5 01:51:32 66° ESE 01:51:59 68° E 01:58:10 10° NNE
Nadezhda 3 Rocket 4.4 01:46:04 10° NNW 01:52:08 48° W 01:52:21 48° W
Cosmos 2341 Rocket 3.9 01:55:10 70° WSW 01:55:38 74° W 02:01:56 10° N
Cosmos 1943 4.1 01:56:08 36° E 01:56:08 36° E 02:01:02 10° NE
Cosmos 1809 Rocket 4.3 01:56:41 73° SE 01:57:08 77° E 02:03:20 10° NNE
USA 215 3.6 02:00:30 47° WSW 02:00:30 47° WSW 02:05:48 10° WNW
Lacrosse 5 3.6 01:58:41 10° WNW 02:03:14 32° N 02:07:47 10° ENE
Cosmos 1339 Rocket 4.5 02:02:12 10° N 02:08:22 73° E 02:09:18 62° SE
Cosmos 1076 Rocket 4.3 02:08:08 10° NNW 02:11:17 47° NNW 02:11:17 47° NNW
BREEZE-M DEB (TANK) 4.0 02:13:14 45° SE 02:13:14 45° SE 02:25:06 10° ENE
H-2A R/B 3.6 02:09:23 10° NNE 02:11:55 38° NE 02:11:55 38° NE
SL-14 R/B 4.5 02:09:19 10° N 02:12:27 41° NE 02:12:27 41° NE
Cosmos-2242 4.1 02:14:49 41° ENE 02:14:49 41° ENE 02:18:24 10° NNE
Cosmos 1626 4.4 02:11:50 10° NNE 02:14:41 20° ENE 02:14:42 20° ENE
Cosmos 864 Rocket 4.4 02:15:55 68° SSE 02:16:37 77° E 02:22:49 10° NNE
ADEOS Rocket 3.6 02:15:50 10° NNE 02:20:56 37° E 02:21:45 35° ESE
CZ-4B R/B 4.4 02:25:59 10° NW 02:25:59 10° NW 02:26:02 10° NW
Cosmos 2208 Rocket 4.1 02:23:26 68° WNW 02:23:33 68° WNW 02:29:01 10° NNE
Cosmos 1470 3.9 02:25:40 42° N 02:25:40 42° N 02:28:19 10° N
Cosmos 2366 rocket 3.9 02:24:31 69° S 02:25:22 89° W 02:31:46 10° N
Cosmos 1727 Rocket 3.8 02:19:32 10° N 02:25:45 86° W 02:26:33 70° S
Cosmos 2263 4.0 02:20:34 10° NNW 02:26:14 89° WSW 02:26:30 82° SSE
Meteor 2-21 Rocket 4.3 02:28:47 69° SW 02:29:33 81° W 02:35:49 10° N
Meteor 2-15 Rocket 4.4 02:26:59 10° NNW 02:33:02 62° W 02:33:26 61° WSW
Cosmos 1603 3.8 02:37:24 59° W 02:38:01 63° WNW 02:43:38 10° NNE
Cosmos 2058 4.0 02:35:55 10° N 02:39:46 37° ENE 02:40:03 36° E
Cosmos 1953 3.8 02:42:51 30° NW 02:42:51 30° NW 02:45:31 10° N
Meteor 1-11 4.4 02:36:51 10° N 02:42:29 68° ENE 02:43:53 50° SE
Meteor 2-16 Rocket 4.3 02:42:08 65° SW 02:43:01 77° W 02:49:10 10° N
NPP 4.1 02:41:14 10° NNE 02:46:31 50° E 02:47:30 45° SE
SL-16 R/B 3.8 02:45:21 21° WNW 02:47:31 26° NW 02:52:14 10° NNE
Cosmos 1842 Rocket 4.1 02:54:54 49° E 02:55:03 49° E 02:59:16 10° NNE
Cosmos 1763 Rocket 3.3 02:54:51 71° SSE 02:55:11 75° ESE 03:00:16 10° NNE
Cosmos 1937 Rocket 4.1 02:54:38 10° NW 02:58:55 41° W 02:58:55 41° W
PSLV R/B 4.4 02:59:53 10° N 03:04:14 41° WNW 03:04:14 41° WNW
Cosmos 1743 Rocket 3.5 03:00:06 10° NNW 03:04:21 76° NW 03:04:21 76° NW
Cosmos 332 Rocket 4.2 03:04:57 48° WNW 03:05:20 49° WNW 03:10:08 10° NNE
Cosmos 2151 2.9 03:04:42 10° N 03:08:56 81° ENE 03:08:56 81° ENE
BREEZE-M DEB (TANK) 3.8 03:09:37 55° SSW 03:10:44 71° SSE 03:25:27 10° ENE
Cosmos 1125 Rocket 3.6 03:06:36 10° NNW 03:11:51 74° ENE 03:14:14 33° SE
Iridium 2 3.9 03:12:24 67° ENE 03:12:24 67° ENE 03:16:03 10° N
Cosmos 1943 Rocket 2.3 03:07:31 10° NW 03:12:39 49° WSW 03:12:39 49° WSW
Cosmos 1242 Rocket 3.0 03:15:31 57° ENE 03:15:31 57° ENE 03:18:37 10° NNE
Cosmos 468 Rocket 4.5 03:14:58 42° W 03:15:44 46° WNW 03:20:44 10° NNE
Cosmos 2123 Rocket 4.2 03:10:47 10° N 03:17:04 68° ENE 03:20:53 25° SSE
Resurs 1-4 Rocket 2.7 03:12:22 10° NNE 03:17:28 48° E 03:19:26 33° SSE
IRS-P3 4.0 03:12:51 10° NNE 03:18:14 87° WNW 03:19:28 55° SSW
SL-16 R/B 2.5 03:15:37 31° SSE 03:18:52 87° ENE 03:25:08 10° NNW
Cosmos 1656 Rocket 3.6 03:15:03 10° NNW 03:20:47 90° ENE 03:24:03 27° SSE
Cosmos 1821 Rocket 3.9 03:20:12 42° S 03:22:31 85° E 03:28:46 10° N
Cosmos 2369 Rocket 3.5 03:20:02 10° NW 03:23:26 24° W 03:23:26 24° W
CZ-2D R/B 2.5 03:22:45 10° NNE 03:28:05 58° E 03:30:15 34° SSE
Cosmos 371 Rocket 4.1 03:27:33 35° W 03:28:21 38° WNW 03:32:54 10° N
Gblst 52 Del rocket 4.1 03:28:55 45° SW 03:30:51 81° SSE 03:36:28 10° ENE
AQUA 3.7 03:28:06 10° NNE 03:32:54 80° WNW 03:33:55 55° SSW
USA 229 DEB 3.7 03:26:15 10° NW 03:33:25 84° SW 03:40:44 10° SE
USA 229 3.7 03:26:22 10° NW 03:33:32 85° SW 03:40:50 10° SE
Cosmos 1934 Rocket 3.9 03:34:38 36° S 03:37:18 85° E 03:43:24 10° N
Cosmos 1943 3.9 03:37:57 32° W 03:39:52 43° NW 03:45:18 10° NNE
USA 32 4.0 03:34:56 10° NNW 03:40:07 63° W 03:41:31 45° SSW
Helios 1A Rocket 3.5 03:36:20 10° N 03:40:11 41° WNW 03:40:24 40° WNW
Cosmos 1633 Rocket 4.5 03:38:09 10° N 03:42:14 36° ENE 03:46:16 10° SE
Cosmos 841 Rocket 3.7 03:41:57 43° WSW 03:43:21 58° WNW 03:48:30 10° NNE
Lacrosse 5 2.9 03:42:14 10° NW 03:47:08 46° NNE 03:52:02 10° E
Cosmos 1500 Rocket 4.2 03:44:52 10° NNW 03:48:54 37° W 03:48:54 37° W
ARIANE 5 R/B 2.6 03:44:45 10° NNE 03:50:01 76° ESE 03:52:31 32° S
Cosmos 1626 3.3 03:46:44 10° NNW 03:49:19 30° WNW 03:49:19 30° WNW
Cosmos 1605 Rocket 4.1 03:47:29 25° S 03:51:26 77° E 03:57:52 10° NNE
SL-08 R/B 4.2 03:54:58 30° W 03:54:58 30° W 03:59:06 10° NNW
UNKNOWN OBJECT B 3.6 03:53:57 10° NNE 03:57:54 48° E 04:00:00 25° SSE
Cosmos 1400 Rocket 2.6 03:54:12 10° NNW 03:58:08 73° W 03:59:09 47° S
UNK 4.0 03:57:31 41° SW 03:58:14 45° W 04:02:39 10° NNW
Cosmos 304 Rocket 4.1 03:59:06 38° WSW 04:00:33 52° WNW 04:05:16 10° NNE
MOZ.5/SAFIR/RUBIN 5/SL-8 3.7 04:00:54 22° S 04:03:53 83° WSW 04:08:37 10° NNW
Cosmos 1726 2.8 04:03:54 25° SSE 04:05:43 50° E 04:09:20 10° NNE
ADEOS Rocket 3.6 04:01:30 10° N 04:06:30 36° WNW 04:08:42 26° WSW
ADEOS II 3.9 04:03:32 10° NE 04:07:58 27° E 04:12:23 10° SSE
NOSS 3-1 (C) 4.0 04:00:44 10° NW 04:08:10 86° NE 04:16:29 10° SE
SL-27 R/B 3.8 04:08:12 22° SSE 04:09:46 33° ESE 04:12:54 10° NE
IRS-1D 3.6 04:09:24 10° N 04:14:28 61° WNW 04:17:04 29° SW
Cosmos 1666 Rocket 3.5 04:10:53 10° N 04:15:21 88° WSW 04:18:57 16° S
Cosmos 2058 4.3 04:13:20 10° NW 04:16:15 21° W 04:16:15 21° W
Cosmos 1805 Rocket 3.7 04:12:56 10° NNW 04:17:18 56° W 04:19:24 28° SSW
Cosmos 2221 2.8 04:17:54 33° SW 04:19:27 50° WNW 04:23:41 10° N
ADEOS 3.6 04:17:43 10° N 04:22:56 69° WNW 04:26:04 24° SSW
Spot 4 Rocket 4.3 04:17:56 10° N 04:22:58 52° WNW 04:25:38 26° SW
Cosmos 1447 Rocket 4.4 04:20:28 10° NNW 04:26:36 69° W 04:32:45 10° S
Cosmos 2100 Rocket 4.4 04:21:53 10° S 04:28:10 65° E 04:34:29 10° NNE
Abrixas 3.4 04:29:36 27° SSE 04:29:36 27° SSE 04:31:12 10° SE
COSMOS 2406 3.2 04:29:09 23° SSW 04:32:51 80° WNW 04:38:35 10° NNE
Okean O Rocket 3.7 04:30:22 10° NE 04:34:04 25° E 04:37:45 10° SSE
Cosmos 2098 Rocket 4.5 04:32:57 22° WSW 04:35:45 33° WNW 04:40:12 10° N
Cosmos 2285 Rocket 4.0 04:31:45 19° SSW 04:36:29 81° WNW 04:42:57 10° NNE
Cosmos 1908 4.3 04:38:54 24° WSW 04:40:10 29° WNW 04:43:34 10° N
Cosmos 540 Rocket 4.2 04:38:05 21° WSW 04:40:58 39° WNW 04:45:47 10° N
Cosmos 1151 Rocket 4.1 04:40:03 10° SSE 04:44:07 43° E 04:48:12 10° NNE
MOS 1 Rocket 3.9 04:40:22 10° N 04:44:17 35° WNW 04:46:38 20° WSW
Meteor 2-10 4.3 04:38:37 10° S 04:44:21 79° E 04:50:00 10° NNE
Cosmos 1980 Rocket 4.1 04:45:01 10° NNW 04:50:03 33° NE 04:55:05 10° ESE
Cosmos 1300 2.7 04:47:35 17° SSW 04:50:24 67° W 04:54:14 10° N
Sich 1 3.6 04:47:24 10° NNW 04:51:28 37° W 04:54:41 15° SSW
Cosmos 2278 3.8 04:48:18 10° NNW 04:53:59 85° ENE 04:59:39 10° SSE
Cosmos 2173 Rocket 4.1 04:48:17 10° S 04:54:35 90° ESE 05:01:01 10° N
CZ-2D R/B 3.8 04:51:16 10° N 04:55:09 46° WNW 04:57:56 17° SW
Resurs 1-4 Rocket 3.2 04:52:39 10° N 04:57:05 28° WNW 05:00:30 15° WSW
Meteor 2-17 Rocket 4.4 04:52:26 10° SSW 04:58:33 71° WNW 05:04:40 10° N
Cosmos 482 Debris 3.7 04:57:56 22° W 04:59:03 39° SSW 05:02:07 10° SE
Cosmos 1315 Rocket 3.8 04:57:58 10° NNW 05:01:29 28° W 05:04:13 14° SW
SL-16 R/B 3.9 05:00:43 14° WSW 05:03:17 18° W 05:07:25 10° NW
Cosmos 1697 Rocket 3.3 05:00:35 10° NNW 05:06:14 63° ENE 05:11:51 10° SE
Cosmos 1455 3.5 05:03:29 10° SSE 05:07:02 41° E 05:10:36 10° NNE
Cosmos 1470 Rocket 3.6 05:03:29 10° NNW 05:07:45 58° W 05:11:59 10° S
CZ-2D R/B 3.4 05:03:28 10° N 05:07:47 25° WNW 05:11:34 12° WSW
Cosmos 2228 Rocket 3.1 05:09:18 10° SSW 05:13:44 64° WNW 05:18:10 10° N
Cosmos 1538 Rocket 4.1 05:11:10 10° SSW 05:16:31 69° WNW 05:21:54 10° NNE
Cosmos 1459 Rocket 4.0 05:11:26 10° SSW 05:17:29 62° WNW 05:23:31 10° N
USA 161 2.3 05:17:34 16° WSW 05:17:57 17° W 05:19:24 10° NW
Cosmos 1633 Rocket 4.2 05:16:19 10° NW 05:19:50 24° W 05:23:20 10° SW
Cosmos 1515 Rocket 3.6 05:16:07 10° SSW 05:20:29 65° WNW 05:24:54 10° N
PSLV R/B 3.9 05:16:42 10° NNE 05:20:52 83° WNW 05:25:01 10° SSW
Tiangong 2 3.8 05:20:55 10° SSE 05:21:47 11° SSE 05:22:38 10° SE
ATLAS 2AS CENTAUR R/B 3.9 05:15:10 10° NW 05:23:11 57° NE 05:30:42 10° ESE
Cosmos 2082 Rocket 3.0 05:19:26 10° S 05:24:51 52° ESE 05:30:19 10° NE
Cosmos 923 Rocket 4.3 05:20:06 10° SSW 05:25:17 70° ESE 05:30:32 10° NNE
Meteor 2-3 Rocket 3.7 05:20:57 10° NNW 05:26:32 66° W 05:32:09 10° S
ARIANE 5 R/B 4.2 05:24:55 10° NNW 05:28:34 19° WNW 05:32:12 10° WSW
NOSS 3-1 (A) 4.2 05:22:06 10° NW 05:29:21 51° WSW 05:37:21 10° SSE
Cosmos 1869 Rocket 4.2 05:25:00 10° N 05:29:29 64° ENE 05:33:54 10° SSE
Lacrosse 5 1.9 05:25:17 10° WNW 05:30:17 58° SW 05:35:14 10° SE
CZ-4B R/B 3.1 05:25:59 10° N 05:30:26 77° WNW 05:34:57 10° SSW
Meteor 1-31 Rocket 4.2 05:27:59 10° NNE 05:31:44 40° E 05:35:28 10° S
CZ-4B R/B 3.4 05:31:37 10° NNE 05:37:11 80° ESE 05:42:35 10° SSW
Cosmos 2061 Rocket 4.3 05:31:09 10° SSW 05:37:24 52° WNW 05:43:41 10° N
